KT2UU-13 Weather Reports


time (UTC)temp
F
wind
direction
speed
knots
gust
knots
rain 1hr
in
rain 24hr
in
rain mn
in
humidity
%
barometer
mb
20260509023412 57 11 0.0 0.0 0.00 0.00 0.00 92 1015.4
20260509022908 57 11 0.0 0.0 0.00 0.00 0.00 92 1015.4
20260509022405 57 11 0.0 0.0 0.00 0.00 0.00 92 1015.5
20260509021903 57 11 0.0 0.0 0.00 0.00 0.00 91 1015.2
20260509021400 57 11 0.0 0.0 0.00 0.00 0.00 91 1015.2
20260509020857 58 11 0.0 0.0 0.00 0.00 0.00 90 1015.0
20260509020355 58 11 0.0 0.0 0.00 0.00 0.00 90 1015.1
20260509015852 58 11 0.0 0.0 0.00 0.00 0.00 90 1014.9
20260509015350 58 11 0.0 0.0 0.00 0.00 0.00 90 1014.9
20260509014847 58 11 0.0 0.0 0.00 0.00 0.00 89 1015.0
20260509014343 58 11 0.0 0.0 0.00 0.00 0.00 89 1014.9
20260509013840 58 11 0.0 0.0 0.00 0.00 0.00 89 1015.0
20260509013336 58 11 0.0 0.0 0.00 0.00 0.00 89 1015.0
20260509012832 59 11 0.0 0.0 0.00 0.00 0.00 89 1014.9
20260509012329 59 11 0.0 0.0 0.00 0.00 0.00 89 1014.7
20260509011827 59 11 0.0 0.0 0.00 0.00 0.00 89 1014.7
20260509011324 59 11 0.0 0.0 0.00 0.00 0.00 89 1014.5
20260509010822 59 11 0.0 0.0 0.00 0.00 0.00 88 1014.8
20260509010319 59 11 0.0 0.0 0.00 0.00 0.00 87 1014.8
20260509005816 60 11 0.0 0.0 0.00 0.00 0.00 87 1014.9
20260509005314 60 11 0.0 0.0 0.00 0.00 0.00 86 1014.9
20260509004813 60 11 0.0 0.0 0.00 0.00 0.00 88 1015.0
20260509004305 60 11 0.0 0.0 0.00 0.00 0.00 88 1014.7
20260509003803 61 11 0.0 0.0 0.00 0.00 0.00 88 1014.8
20260509003301 61 11 0.0 0.0 0.00 0.00 0.00 88 1015.0
20260509002757 61 11 0.0 0.0 0.00 0.00 0.00 88 1014.7
20260509002255 61 11 0.0 0.0 0.00 0.00 0.00 88 1014.7
20260509001752 61 11 0.0 0.0 0.00 0.00 0.00 88 1014.7
20260509001248 62 11 0.0 0.0 0.00 0.00 0.00 88 1014.8
20260509000746 62 11 0.0 0.0 0.00 0.00 0.00 87 1014.7
20260509000243 62 11 0.0 0.0 0.00 0.00 0.00 86 1014.6
20260508235740 63 21 0.0 0.0 0.00 0.00 0.00 85 1014.7
20260508235236 63 11 0.0 0.0 0.00 0.00 0.00 85 1014.8
20260508234734 63 11 0.0 0.0 0.00 0.00 0.00 84 1014.5
20260508234229 64 11 0.0 0.0 0.00 0.00 0.00 83 1014.6
20260508233724 64 11 0.0 0.0 0.00 0.00 0.00 82 1014.7
20260508233221 64 11 0.0 0.0 0.00 0.00 0.00 81 1014.6
20260508232719 65 11 0.0 0.0 0.00 0.00 0.00 79 1014.7
20260508232215 65 11 0.0 0.0 0.00 0.00 0.00 76 1014.7
20260508231713 65 21 0.0 0.0 0.00 0.00 0.00 74 1014.5
20260508231210 66 21 0.0 0.0 0.00 0.00 0.00 73 1014.6
20260508230707 66 11 0.0 0.0 0.00 0.00 0.00 70 1014.6
20260508230203 67 11 0.0 0.0 0.00 0.00 0.00 69 1014.6
20260508225701 67 11 0.0 0.0 0.00 0.00 0.00 70 1014.8
20260508225156 67 11 0.0 0.0 0.00 0.00 0.00 67 1014.6
20260508224655 67 11 0.0 0.0 0.00 0.00 0.00 65 1014.8
20260508224152 67 11 0.0 0.0 0.00 0.00 0.00 67 1014.8
20260508223649 67 11 0.0 0.0 0.00 0.00 0.00 65 1014.9
20260508223147 67 11 0.0 0.0 0.00 0.00 0.00 65 1014.7
20260508222644 67 11 0.0 0.0 0.00 0.00 0.00 62 1015.0
20260508222141 67 11 0.0 0.0 0.00 0.00 0.00 61 1015.0
20260508221637 67 11 0.0 0.0 0.00 0.00 0.00 60 1015.0
20260508221133 68 11 0.0 0.0 0.00 0.00 0.00 58 1015.0
20260508220630 68 11 0.0 0.0 0.00 0.00 0.00 62 1015.0
20260508220126 68 11 0.0 0.0 0.00 0.00 0.00 64 1015.0
20260508215623 68 11 0.0 0.0 0.00 0.00 0.00 63 1014.9
20260508215120 69 10 0.0 0.0 0.00 0.00 0.00 62 1015.1
20260508214617 69 10 0.0 0.0 0.00 0.00 0.00 61 1014.9
20260508214114 69 10 0.0 0.0 0.00 0.00 0.00 60 1015.1
20260508213611 70 10 0.0 0.0 0.00 0.00 0.00 61 1014.9
20260508213107 70 10 0.0 0.0 0.00 0.00 0.00 59 1014.9
20260508212603 69 10 0.0 0.0 0.00 0.00 0.00 59 1014.7
20260508212100 70 12 0.0 0.0 0.00 0.00 0.00 54 1014.9
20260508211555 70 9 0.9 0.9 0.00 0.00 0.00 59 1014.7
20260508211052 70 6 0.0 0.0 0.00 0.00 0.00 56 1014.6
20260508210548 70 1 0.0 0.0 0.00 0.00 0.00 54 1015.0
20260508210046 70 349 0.0 0.0 0.00 0.00 0.00 53 1014.8
20260508205543 70 8 0.0 0.0 0.00 0.00 0.00 55 1014.9
20260508205039 71 11 0.9 1.7 0.00 0.00 0.00 50 1015.0
20260508204536 71 10 0.0 0.0 0.00 0.00 0.00 53 1014.8
20260508204031 71 8 0.0 0.0 0.00 0.00 0.00 51 1015.2
20260508203528 71 5 0.0 0.9 0.00 0.00 0.00 49 1014.9
20260508203024 72 1 0.0 0.9 0.00 0.00 0.00 48 1015.3
20260508202521 72 301 0.0 0.9 0.00 0.00 0.00 45 1015.3
20260508202018 71 15 0.0 1.7 0.00 0.00 0.00 49 1015.1
20260508201514 72 78 0.0 0.0 0.00 0.00 0.00 49 1015.3
20260508201011 71 112 0.0 0.0 0.00 0.00 0.00 52 1015.3
20260508200508 71 4 0.0 0.9 0.00 0.00 0.00 51 1015.0
20260508200004 71 14 0.0 0.0 0.00 0.00 0.00 52 1015.1
20260508195501 71 1 1.7 2.6 0.00 0.00 0.00 48 1015.2
20260508194956 72 150 0.0 0.0 0.00 0.00 0.00 51 1015.1
20260508194454 72 139 0.0 0.0 0.00 0.00 0.00 51 1015.2
20260508193951 72 176 0.0 0.0 0.00 0.00 0.00 45 1015.4
20260508193447 72 213 0.0 0.9 0.00 0.00 0.00 43 1015.5
20260508192944 71 193 0.0 0.0 0.00 0.00 0.00 45 1015.5
20260508192441 71 135 0.9 1.7 0.00 0.00 0.00 49 1015.8
20260508191938 71 149 0.0 0.9 0.00 0.00 0.00 49 1016.1
20260508191435 71 92 0.0 1.7 0.00 0.00 0.00 48 1016.1
20260508190931 71 136 0.9 1.7 0.00 0.00 0.00 46 1016.1
20260508190429 71 0 0.0 0.9 0.00 0.00 0.00 48 1016.1
20260508185925 71 226 0.0 1.7 0.00 0.00 0.00 50 1016.3
20260508185423 72 270 0.0 1.7 0.00 0.00 0.00 46 1016.2
20260508184920 72 184 0.9 0.9 0.00 0.00 0.00 48 1016.3
20260508184417 71 254 0.0 1.7 0.00 0.00 0.00 48 1016.4
20260508183914 71 113 0.0 0.9 0.00 0.00 0.00 50 1016.3
20260508183410 72 90 0.0 1.7 0.00 0.00 0.00 47 1016.4
20260508182905 72 58 0.0 1.7 0.00 0.00 0.00 45 1016.3
20260508182403 71 332 0.0 1.7 0.00 0.00 0.00 43 1016.5
20260508181858 70 350 0.0 0.0 0.00 0.00 0.00 46 1016.7
20260508181355 70 15 0.0 2.6 0.00 0.00 0.00 46 1016.7
20260508180852 70 341 1.7 2.6 0.00 0.00 0.00 44 1016.6
20260508180349 71 5 0.0 2.6 0.00 0.00 0.00 43 1016.8
20260508175845 71 237 0.9 2.6 0.00 0.00 0.00 48 1016.8
20260508175342 70 101 0.0 1.7 0.00 0.00 0.00 49 1016.9
20260508174840 70 43 0.9 0.9 0.00 0.00 0.00 45 1017.0
20260508174337 70 191 0.0 0.0 0.00 0.00 0.00 47 1016.9
20260508173834 69 209 0.0 0.9 0.00 0.00 0.00 45 1017.0
20260508173331 69 357 0.0 2.6 0.00 0.00 0.00 43 1016.9
20260508172826 69 137 0.0 0.9 0.00 0.00 0.00 45 1017.1
20260508172324 69 127 0.0 1.7 0.00 0.00 0.00 43 1017.4
20260508171820 70 129 1.7 2.6 0.00 0.00 0.00 46 1017.3
20260508171316 69 213 0.9 1.7 0.00 0.00 0.00 40 1017.5
20260508170813 69 4 0.0 0.9 0.00 0.00 0.00 45 1017.4
20260508170312 69 16 0.0 0.9 0.00 0.00 0.00 49 1017.5
20260508165808 68 165 1.7 2.6 0.00 0.00 0.00 47 1017.5
20260508165307 67 343 0.0 1.7 0.00 0.00 0.00 48 1017.6
20260508164801 68 265 0.0 1.7 0.00 0.00 0.00 45 1017.7
20260508164258 68 331 0.0 1.7 0.00 0.00 0.00 47 1017.7
20260508163756 68 92 0.0 1.7 0.00 0.00 0.00 48 1018.0
20260508163254 68 172 0.9 1.7 0.00 0.00 0.00 46 1018.1
20260508162749 67 5 0.0 0.0 0.00 0.00 0.00 47 1018.0
20260508162246 67 26 0.0 0.9 0.00 0.00 0.00 58 1018.1
20260508161743 67 356 0.0 1.7 0.00 0.00 0.00 49 1018.3
20260508161240 67 125 0.9 1.7 0.00 0.00 0.00 52 1018.4
20260508160738 66 36 0.0 1.7 0.00 0.00 0.00 50 1018.4
20260508160237 66 142 0.0 0.9 0.00 0.00 0.00 53 1018.5
20260508155732 67 353 0.9 1.7 0.00 0.00 0.00 49 1018.6
20260508155230 66 123 0.0 0.9 0.00 0.00 0.00 56 1018.5
20260508154726 65 359 1.7 2.6 0.00 0.00 0.00 52 1018.7
20260508154224 65 14 0.0 0.9 0.00 0.00 0.00 52 1018.6
20260508153720 65 320 0.9 3.5 0.00 0.00 0.00 49 1018.7
20260508153217 65 20 0.9 1.7 0.00 0.00 0.00 52 1018.8
20260508152714 64 223 0.0 0.9 0.00 0.00 0.00 60 1018.8
20260508152210 65 8 0.0 0.9 0.00 0.00 0.00 59 1018.8
20260508151707 64 9 0.0 2.6 0.00 0.00 0.00 57 1018.7
20260508151203 65 348 0.9 1.7 0.00 0.00 0.00 57 1018.7
20260508150700 64 286 0.0 0.9 0.00 0.00 0.00 60 1019.1
20260508150157 63 201 0.9 1.7 0.00 0.00 0.00 61 1018.9
20260508145652 64 19 1.7 6.1 0.00 0.00 0.00 59 1018.9
20260508145149 63 222 0.0 0.0 0.00 0.00 0.00 66 1019.0
20260508144646 62 222 0.0 1.7 0.00 0.00 0.00 65 1019.1
20260508144144 64 222 0.0 0.0 0.00 0.00 0.00 67 1019.2
20260508143641 62 222 0.0 0.0 0.00 0.00 0.00 68 1019.1
20260508143138 63 222 0.0 0.0 0.00 0.00 0.00 65 1019.0
20260508142634 61 223 0.9 0.9 0.00 0.00 0.00 71 1019.1
20260508142131 60 222 0.9 1.7 0.00 0.00 0.00 71 1019.0
20260508141628 61 222 0.9 1.7 0.00 0.00 0.00 69 1019.0
20260508141126 60 222 0.9 0.9 0.00 0.00 0.00 72 1019.2
20260508140623 60 217 0.9 0.9 0.00 0.00 0.00 76 1019.1
20260508140120 59 217 0.0 1.7 0.00 0.00 0.00 78 1018.9
20260508135614 59 219 0.0 0.0 0.00 0.00 0.00 80 1018.8
20260508135110 58 217 0.9 1.7 0.00 0.00 0.00 79 1018.9
20260508134608 59 219 0.0 0.0 0.00 0.00 0.00 79 1019.0
20260508134104 59 198 0.0 0.9 0.00 0.00 0.00 75 1019.2
20260508133601 59 219 0.0 0.0 0.00 0.00 0.00 76 1019.2
20260508133059 59 220 0.0 0.0 0.00 0.00 0.00 78 1019.0
20260508132551 58 217 0.9 0.9 0.00 0.00 0.00 82 1019.1
20260508132047 59 219 0.0 0.9 0.00 0.00 0.00 79 1018.9
20260508131542 58 197 0.0 0.9 0.00 0.00 0.00 81 1019.0
20260508131034 58 218 0.0 0.0 0.00 0.00 0.00 79 1019.0
20260508130531 58 219 0.9 0.9 0.00 0.00 0.00 79 1019.2
20260508130027 58 218 0.0 0.0 0.00 0.00 0.00 79 1019.3
20260508125523 58 218 0.0 0.0 0.00 0.00 0.00 80 1019.4
20260508125021 55 217 0.0 0.9 0.00 0.00 0.00 84 1019.3
20260508124519 56 335 0.0 0.0 0.00 0.00 0.00 82 1019.3
20260508124016 55 335 0.0 1.7 0.00 0.00 0.00 84 1019.4
20260508123514 55 326 0.0 1.7 0.00 0.00 0.00 85 1019.1
20260508123010 55 237 0.0 0.9 0.00 0.00 0.00 86 1019.0
20260508122508 54 236 0.0 0.0 0.00 0.00 0.00 89 1019.1
20260508122004 54 253 0.0 0.0 0.00 0.00 0.00 89 1019.1
20260508121502 53 248 0.0 0.0 0.00 0.00 0.00 91 1019.1
20260508121000 52 276 0.0 0.0 0.00 0.00 0.00 94 1019.0
20260508120457 51 277 0.0 0.0 0.00 0.00 0.00 96 1018.8
20260508115955 50 279 0.0 0.0 0.00 0.00 0.00 97 1018.7
20260508115453 50 279 0.0 0.0 0.00 0.00 0.00 98 1018.8
20260508114949 50 279 0.0 0.0 0.00 0.00 0.00 98 1018.5
20260508114446 49 279 0.0 0.0 0.00 0.00 0.00 99 1018.5
20260508113942 49 279 0.0 0.0 0.00 0.00 0.00 99 1018.3
20260508113440 48 279 0.0 0.0 0.00 0.00 0.00 99 1018.2
20260508112937 48 279 0.0 0.0 0.00 0.00 0.00 99 1017.9
20260508112434 48 279 0.0 0.0 0.00 0.00 0.00 99 1017.9
20260508111930 48 279 0.0 0.0 0.00 0.00 0.00 99 1017.8
20260508111428 47 279 0.0 0.0 0.00 0.00 0.00 99 1017.6
20260508110925 47 279 0.0 0.0 0.00 0.00 0.00 99 1017.6
20260508110423 47 279 0.0 0.0 0.00 0.00 0.00 99 1017.8
20260508105922 47 279 0.0 0.0 0.00 0.00 0.00 99 1017.6
20260508105418 47 279 0.0 0.0 0.00 0.00 0.00 99 1017.5
20260508104916 47 279 0.0 0.0 0.00 0.00 0.00 99 1017.3
20260508104413 47 279 0.0 0.0 0.00 0.00 0.00 99 1017.2
20260508103910 48 279 0.0 0.0 0.00 0.00 0.00 99 1017.2
20260508103407 47 279 0.0 0.0 0.00 0.00 0.00 99 1017.1
20260508102904 47 279 0.0 0.0 0.00 0.00 0.00 99 1017.1
20260508102403 47 279 0.0 0.0 0.00 0.00 0.00 98 1016.9
20260508101859 48 279 0.0 0.0 0.00 0.00 0.00 98 1016.9
20260508101356 48 279 0.0 0.0 0.00 0.00 0.00 98 1016.8
20260508100854 48 279 0.0 0.0 0.00 0.00 0.00 98 1016.6
20260508100353 48 279 0.0 0.0 0.00 0.00 0.00 98 1016.5
20260508095848 48 279 0.0 0.0 0.00 0.00 0.00 98 1016.5
20260508095346 48 279 0.0 0.0 0.00 0.00 0.00 98 1016.5
20260508094842 49 279 0.0 0.0 0.00 0.00 0.00 98 1016.6
20260508094339 49 279 0.0 0.0 0.00 0.00 0.00 98 1016.6
20260508093836 49 279 0.0 0.0 0.00 0.00 0.00 97 1016.5
20260508093334 49 279 0.0 0.0 0.00 0.00 0.00 97 1016.5
20260508092831 49 279 0.0 0.0 0.00 0.00 0.00 97 1016.5
20260508092329 49 279 0.0 0.0 0.00 0.00 0.00 96 1016.3
20260508091827 49 279 0.0 0.0 0.00 0.00 0.00 96 1016.3
20260508091323 49 279 0.0 0.0 0.00 0.00 0.00 95 1016.5
20260508090821 49 279 0.0 0.0 0.00 0.00 0.00 95 1016.6
20260508090320 49 279 0.0 0.0 0.00 0.00 0.00 95 1016.5
20260508085814 49 279 0.0 0.0 0.00 0.00 0.00 95 1016.4
20260508085312 49 257 0.0 0.0 0.00 0.00 0.00 95 1016.4
20260508084808 49 281 0.0 0.0 0.00 0.00 0.00 95 1016.3
20260508084305 50 281 0.0 0.0 0.00 0.00 0.00 96 1016.4
20260508083803 50 281 0.0 0.0 0.00 0.00 0.00 96 1016.5
20260508083300 50 281 0.0 0.0 0.00 0.00 0.00 96 1016.1
20260508082800 50 281 0.0 0.0 0.00 0.00 0.00 96 1016.2
20260508082258 50 282 0.0 0.0 0.00 0.00 0.00 96 1016.3
20260508081755 50 281 0.0 0.0 0.00 0.00 0.00 96 1016.2
20260508081252 50 282 0.0 0.0 0.00 0.00 0.00 96 1016.2
20260508080748 50 287 0.0 0.0 0.00 0.00 0.00 96 1016.4
20260508080247 50 287 0.0 0.0 0.00 0.00 0.00 96 1016.1
20260508075743 50 287 0.0 0.0 0.00 0.00 0.00 96 1016.3
20260508075240 50 255 0.0 0.0 0.00 0.00 0.00 97 1016.1
20260508074738 50 252 0.0 0.0 0.00 0.00 0.00 97 1016.3
20260508074235 50 255 0.0 0.0 0.00 0.00 0.00 97 1016.3
20260508073732 50 266 0.0 0.0 0.00 0.00 0.00 97 1016.3
20260508073230 50 245 0.0 0.0 0.00 0.00 0.00 97 1016.5
20260508072725 50 255 1.7 1.7 0.00 0.00 0.00 97 1016.5
20260508072223 50 0 0.0 0.0 0.00 0.00 0.00 97 1016.4
20260508071720 50 10 0.0 0.0 0.00 0.00 0.00 97 1016.7
20260508071218 50 0 0.0 0.0 0.00 0.00 0.00 97 1016.3
20260508070715 50 0 0.0 0.0 0.00 0.00 0.00 97 1016.5
20260508070214 51 0 0.0 0.0 0.00 0.00 0.00 97 1016.6
20260508065710 51 0 0.0 0.0 0.00 0.00 0.00 97 1016.7
20260508065209 51 0 0.0 0.0 0.00 0.00 0.00 97 1016.7
20260508064706 51 0 0.0 0.0 0.00 0.00 0.00 97 1016.6
20260508064204 51 0 0.0 0.0 0.00 0.00 0.00 97 1016.5
20260508063701 52 0 0.0 0.0 0.00 0.00 0.00 97 1016.7
20260508063159 52 0 0.0 0.0 0.00 0.00 0.00 97 1016.7
20260508062656 52 0 0.0 0.0 0.00 0.00 0.00 97 1016.6
20260508062153 52 0 0.0 0.0 0.00 0.00 0.00 97 1016.8
20260508061650 52 0 0.0 0.9 0.00 0.00 0.00 98 1016.8
20260508061148 52 0 0.9 0.9 0.00 0.00 0.00 98 1016.6
20260508060644 52 0 0.0 0.0 0.00 0.00 0.00 98 1016.8
20260508060141 52 0 0.0 0.0 0.00 0.00 0.00 98 1016.6
20260508055637 52 0 0.0 0.9 0.00 0.00 0.00 98 1016.8
20260508055134 53 0 0.0 0.0 0.00 0.00 0.00 98 1016.8
20260508054630 53 0 0.0 0.9 0.00 0.00 0.00 98 1016.8
20260508054128 53 0 0.0 0.0 0.00 0.00 0.00 98 1016.7
20260508053625 52 0 0.0 0.0 0.00 0.00 0.00 97 1016.6
20260508053122 53 0 0.0 0.0 0.00 0.00 0.00 97 1016.8
20260508052620 53 0 0.0 0.0 0.00 0.00 0.00 97 1016.8
20260508052116 53 0 0.0 0.0 0.00 0.00 0.00 96 1016.5
20260508051613 53 0 0.0 0.0 0.00 0.00 0.00 96 1016.6
20260508051108 53 0 0.0 0.0 0.00 0.00 0.00 95 1016.9
20260508050604 53 0 0.0 0.0 0.00 0.00 0.00 94 1016.8
20260508045558 54 0 0.0 0.0 0.00 0.00 0.00 94 1017.0
20260508045056 54 0 0.0 0.9 0.00 0.00 0.00 94 1017.0
20260508044553 55 229 0.0 0.9 0.00 0.00 0.00 93 1017.0
20260508044049 55 229 0.0 0.0 0.00 0.00 0.00 91 1016.9
20260508043546 55 228 0.0 0.9 0.00 0.00 0.00 91 1016.9
20260508043043 55 257 0.0 0.0 0.00 0.00 0.00 95 1016.7
20260508042539 55 274 0.0 0.0 0.00 0.00 0.00 95 1016.6
20260508042037 55 206 0.0 0.9 0.00 0.00 0.00 96 1016.6
20260508041533 55 206 0.0 0.0 0.00 0.00 0.00 95 1016.8
20260508041030 55 228 0.0 0.0 0.00 0.00 0.00 94 1016.8
20260508040527 55 228 0.0 0.0 0.00 0.00 0.00 94 1016.9
20260508040025 55 229 0.0 0.0 0.00 1.34 1.34 95 1016.7
20260508035521 54 248 0.0 0.9 0.00 1.34 1.34 96 1016.6
20260508035018 54 205 0.0 0.9 0.00 1.34 1.34 98 1016.6
20260508034515 54 224 0.0 0.0 0.00 1.34 1.34 99 1016.6
20260508034012 55 224 0.0 0.0 0.00 1.34 1.34 99 1016.8
20260508033510 55 203 0.0 0.0 0.00 1.34 1.34 99 1016.7
20260508033008 55 225 0.0 0.0 0.00 1.34 1.34 99 1016.7
20260508032504 55 225 0.0 0.0 0.00 1.34 1.34 99 1016.8
20260508032002 55 225 0.0 0.0 0.00 1.34 1.34 99 1016.7
20260508031459 55 224 0.0 0.0 0.00 1.34 1.34 99 1016.6
20260508030954 55 225 0.0 0.0 0.00 1.34 1.34 99 1016.5
20260508030451 55 225 0.0 0.0 0.00 1.34 1.34 99 1016.6
20260508025949 55 225 0.0 0.0 0.00 1.34 1.34 99 1016.6
20260508025445 55 225 0.0 0.0 0.00 1.34 1.34 99 1016.3
20260508024943 55 203 0.0 0.0 0.00 1.34 1.34 99 1016.4
20260508024438 56 225 0.0 0.0 0.00 1.34 1.34 99 1016.3
20260508023935 56 225 0.0 0.0 0.00 1.34 1.34 99 1016.5